Kezdőlap
METAR-TAF:

METAR-TAF

Repülőterek :

Keokuk Municipal Airport

Keokuk, Iowa, Amerikai Egyesült Államok

földrajzi szélesség: 40-28N, földrajzi hosszúság: 091-26W, magasság: 205 m

Jelenlegi meteorológiai megfigyelések

A jelentés 12 perccel ezelõtt készült, 10:15 UTC
Szélcsend
Hőmérséklet 11°C
Páratartalom 100%
Légköri nyomás 1015 hPa
Látótávolság: 16.1 km
Derült ég

METAR: KEOK 171015Z AUTO 00000KT 10SM CLR 11/11 A2997 RMK A01

Idő: 05:27 (10:27 UTC)


TAF: hiányzik

Meteorológiai megfigyelések és előrejelzések több, mint 4000 repülőtéren (METAR és TAF jelentéseket).

A térképen piros és sárga pontok jelzik az elérhető meteorológiai állomásokat.

Mozgassa az egeret a pont fölött, hogy megjelenjen az állomás neve.

Azután kattintson az időjárási megfigyelések és előrejelzések megtekintéséhez.

A térkép megváltoztatása: kattintson a fekete keresztel jelölt zöld gombra ráközelítéshez, a vonallal jelölt zöld gombra távolításhoz, vagy a zöld nyilakra a szomszédos térképek eléréséhez.


METAR-TAF: